Change the Weather History Date:

Sunday, May 26, 2013

  Actual Average Record
Temperature  
Mean Temperature 59 °F 66 °F  
Max Temperature 66 °F 79 °F 95 °F (2012)
Min Temperature 51 °F 55 °F 41 °F (2002)
Degree Days  
Heating Degree Days 6 2  
Month to date heating degree days 113 131  
Since 1 July heating degree days 5638 5795  
Cooling Degree Days 0 4  
Month to date cooling degree days 82 60  
Year to date cooling degree days 90 71  
Growing Degree Days 8 (Base 50)    
Moisture  
Dew Point 52 °F    
Average Humidity 81    
Maximum Humidity 89    
Minimum Humidity 73    
Precipitation  
Precipitation 0.07 in 0.12 in 0.51 in (1951)
Month to date precipitation 2.28 3.85  
Year to date precipitation 14.52 14.46  
Sea Level Pressure  
Sea Level Pressure 30.20 in    
Wind  
Wind Speed 13 mph (ESE)    
Max Wind Speed 21 mph    
Max Gust Speed 26 mph    
Visibility 10 miles    
Events Rain    
T = Trace of Precipitation, MM = Missing Value Source: NWS Daily Summary

Daily Weather History Graph

Daily Weather History Graph

Search for Another Location

Airport or City:

Trip Planner

Search our weather history database for the weather conditions in past years. The results will help you decide how hot, cold, wet, or windy it might be!

Date:

Astronomy

May. 26, 2013 Rise Set
Actual Time 5:29 AM CDT 8:11 PM CDT
Civil Twilight 4:57 AM CDT 8:43 PM CDT
Nautical Twilight 4:17 AM CDT 9:23 PM CDT
Astronomical Twilight 3:32 AM CDT 10:08 PM CDT
Moon 9:58 PM CDT (5/26) 6:58 AM CDT (5/26)
Length of Visible Light 15h 45m
Length of Day
14h 42m
Waning Gibbous, 96% of the Moon is Illuminated
May 26
Waning Gibbous
May 31
Last Quarter
Jun 8
New
Jun 16
First Quarter
Jun 23
Full

Hourly Weather History & Observations

Time (CDT) Temp. Dew Point Humidity Pressure Visibility Wind Dir Wind Speed Gust Speed Precip Events Conditions
12:53 AM 52.0 °F 48.0 °F 86% 30.26 in 10.0 mi East 10.4 mph - 0.00 in   Overcast
1:53 AM 52.0 °F 48.0 °F 86% 30.25 in 10.0 mi ENE 10.4 mph - 0.00 in   Overcast
2:53 AM 52.0 °F 48.9 °F 89% 30.23 in 9.0 mi East 9.2 mph - N/A   Overcast
3:53 AM 52.0 °F 46.0 °F 80% 30.24 in 10.0 mi East 6.9 mph - N/A   Overcast
4:53 AM 52.0 °F 46.9 °F 83% 30.24 in 10.0 mi East 8.1 mph - N/A   Overcast
5:53 AM 52.0 °F 46.9 °F 83% 30.25 in 10.0 mi East 8.1 mph - N/A   Overcast
6:53 AM 52.0 °F 46.9 °F 83% 30.27 in 10.0 mi East 10.4 mph - N/A   Overcast
7:53 AM 53.1 °F 48.0 °F 83% 30.28 in 10.0 mi ESE 9.2 mph - N/A   Overcast
8:53 AM 55.0 °F 48.9 °F 80% 30.26 in 10.0 mi ESE 13.8 mph - 0.01 in   Mostly Cloudy
9:53 AM 57.0 °F 50.0 °F 77% 30.28 in 10.0 mi SSE 13.8 mph - N/A   Overcast
10:53 AM 57.9 °F 52.0 °F 81% 30.27 in 9.0 mi SE 10.4 mph - 0.00 in Rain Light Rain
11:53 AM 59.0 °F 53.1 °F 81% 30.26 in 10.0 mi SE 8.1 mph - 0.01 in   Scattered Clouds
12:53 PM 57.9 °F 53.1 °F 84% 30.25 in 6.0 mi ESE 12.7 mph - 0.01 in Rain Light Rain
1:53 PM 60.1 °F 54.0 °F 80% 30.20 in 10.0 mi SE 15.0 mph - 0.03 in Rain Light Rain
2:53 PM 64.0 °F 55.0 °F 73% 30.19 in 10.0 mi SE 17.3 mph 21.9 mph 0.00 in   Partly Cloudy
3:41 PM 64.4 °F 57.2 °F 77% 30.18 in 10.0 mi SE 13.8 mph - N/A   Mostly Cloudy
3:53 PM 64.9 °F 55.9 °F 73% 30.19 in 10.0 mi SE 13.8 mph - N/A   Scattered Clouds
4:53 PM 64.0 °F 55.9 °F 75% 30.17 in 10.0 mi SE 11.5 mph - N/A   Mostly Cloudy
5:53 PM 64.0 °F 55.9 °F 75% 30.16 in 10.0 mi ESE 12.7 mph - 0.00 in   Mostly Cloudy
6:53 PM 63.0 °F 55.9 °F 78% 30.12 in 10.0 mi ESE 15.0 mph - N/A   Mostly Cloudy
7:53 PM 61.0 °F 55.9 °F 83% 30.11 in 10.0 mi ESE 13.8 mph - N/A   Clear
8:53 PM 61.0 °F 55.9 °F 83% 30.14 in 10.0 mi NNE 16.1 mph - N/A   Overcast
9:05 PM 62.6 °F 55.4 °F 77% 30.13 in 10.0 mi ENE 12.7 mph - N/A   Overcast
9:53 PM 61.0 °F 54.0 °F 78% 30.12 in 10.0 mi East 16.1 mph - N/A   Mostly Cloudy
10:53 PM 60.8 °F 53.6 °F 77% 30.09 in 10.0 mi East 15.0 mph - N/A   Mostly Cloudy
11:53 PM 60.1 °F 54.0 °F 80% 30.06 in 10.0 mi ESE 17.3 mph - 0.00 in   Partly Cloudy